User: anonymous
Location: Gipe Farm
(40.9466°N, 95.5370°W)
Time: 10:10:23
(UTC-05:00)
Language:

Cosmos 1842 - Orbit

View from above orbital plane
View from above orbital plane
View from above satellite
View from above satellite

Ground track
Ground track

The orbit data is extracted from the following two-line orbital elements,

1 17911U 87038A   14293.10995573  .00006782  00000-0  44962-3 0  6014
2 17911 082.4915 062.1348 0012822 315.6507 044.3693 15.07066311495272
Epoch (UTC): 20 October 2014 02:38:20
Eccentricity: 0.0012822
inclination: 82.4915°
perigee height: 536 km
apogee height: 554 km
right ascension of ascending node: 62.1348°
argument of perigee: 315.6507°
revolutions per day: 15.07066311
mean anomaly at epoch: 44.3693°
orbit number at epoch: 49527

The dashed part of the orbit path shows where the satellite is in the earth's shadow,  

DLR